カタログに戻る

COSMOS 887

運用中軍事PO
NORAD 9637·PAYLOAD·🇷🇺 Russia

打ち上げ Dec 28, 1976 から Plesetsk Cosmodrome

Loading…

次のパス (今後24時間)

TLE

最新Source: Space-Track

元期: Sep 14, 2026, 06:45 UTC

1 09637U 76128A   26257.28170049  .00000043  00000-0  28352-4 0  9993
2 09637  82.9360  94.6051 0045002 358.3012 175.8779 13.76512894495944

AllMySatでCOSMOS 887をリアルタイム追跡

Download on the App Store